Location: Bay Ridge
(40.6340°N, 74.0146°W)
Time: 05:01:49
(UTC+00:00)

ASTEX 1 - Pass Details

Date: 15 November 2019
Orbit: 721 x 743 km, 92.7° (Epoch: 09 December)

Event Time Altitude Azimuth Distance (km) Brightness Sun altitude
Rises 09:42:08 0° 177° (S) 3,141 6.8 -22.8°
Reaches altitude 10° 09:44:25 10° 179° (S) 2,227 6.0 -22.4°
Maximum altitude 09:49:21 75° 265° (W) 767 3.3 -21.5°
Drops below altitude 10° 09:54:21 10° 351° (N) 2,256 5.8 -20.5°
Sets 09:56:40 0° 353° (N) 3,186 6.6 -20.1°
